sat.trackr.live / text

‹ back to catalog

HAWK-2B

NORAD 47508 · 2021-006CZ

PAYLOAD ACTIVE UNKNOWN

§ Identity

Operator
Country
US
Launch date
2021-01-24
Launch site
AFETR
Launch vehicle
Mass (kg)
RCS (m²)

Purposes: tech_demo

External: N2YO · Heavens-Above · Gunter

§ Orbital elements

Epoch: 2026-05-25T01:36:57.509856Z

Period
93.85 min
Inclination
97.2209°
Eccentricity
0.0005003
Mean motion
15.34402635 rev/d
Perigee alt
459.3 km
Apogee alt
466.1 km
Semi-major
6,840.8 km
B*
2.0231e-4
RAAN
188.8754°
Arg perigee
288.4610°
Mean anomaly
71.6089°
Rev number
29,595

§ Raw data

HAWK-2B1 47508U 21006CZ  26145.06733229  .00006665  00000+0  20231-3 0  99962 47508  97.2209 188.8754 0005003 288.4610  71.6089 15.34402635295957

JSON: /api/v1/satellites/47508 · /tle

For live sub-satellite position, see the globe view (requires WebGL).

§ Visibility from observer

Set your observer location to see the next 7 days of passes ≥ 10°. The values pass through the URL so the page stays shareable.

No JS? Fill the form by hand. The geolocation button needs JavaScript.